Location: Unspecified
(50.1700°N, 6.8600°E)
Time: 00:08:44
(UTC+00:00)

Okean-O - Pass Details

Date: 24 January 2019
Orbit: 639 x 641 km, 98.2° (Epoch: 18 February)

Event Time Altitude Azimuth Distance (km) Brightness Sun altitude
Rises 05:02:16 0° 21° (NNE) 2,957 6.3 -21.4°
Reaches altitude 10° 05:04:40 10° 31° (NNE) 2,043 5.5 -21.0°
Maximum altitude 05:08:43 34° 97° (E) 1,066 4.4 -20.3°
Drops below altitude 10° 05:12:44 10° 162° (SSE) 2,027 5.5 -19.7°
Sets 05:15:05 0° 172° (S) 2,931 6.2 -19.3°
